Date String (YYYY-MM-DD hh:mm:ss) UTC,Instrument flags,Ambient pressure (hPa),Sample flow (lpm),Bypass flow (lpm),Sample temperature (°C),Ambient temperature (°C),ASC tube jacket temperature (°C),LED temperature (°C),Box temperature (°C),Sample RH (%),Span deviation,Mass concentration (μg/m³),Mass concentration (μg/m³),Mass concentration (μg/m³)
DateTimeUTC,F1_M11,P_M11,Q1_M11,Q2_M11,T1_M11,T2_M11,T3_M11,T4_M11,T5_M11,U1_M11,ZSPAN_M11,X2_M11,X0_M11,X1_M11
2023-05-29 07:00:00,,0829.9,5.00,0.00,29.9,28.3,00.0,38.3,31.4,18.3,0000.0,0003.99,0010.00,0003.17
2023-05-29 07:01:00,,0829.9,5.00,0.00,29.9,28.3,00.0,38.3,31.4,18.8,0000.0,0003.94,0010.39,0003.16
2023-05-29 07:02:00,,0829.9,5.00,0.00,29.9,28.3,00.0,38.3,31.4,18.9,0000.0,0003.95,0010.34,0003.16
2023-05-29 07:03:00,,0830.0,5.01,0.00,29.9,28.3,00.0,38.3,31.4,18.6,0000.0,0003.95,0010.14,0003.17
2023-05-29 07:04:00,,0830.0,5.00,0.00,29.9,28.2,00.0,38.3,31.4,19.0,0000.0,0003.93,0009.66,0003.17
2023-05-29 07:05:00,,0830.0,5.00,0.00,29.9,28.2,00.0,38.3,31.4,19.2,0000.0,0003.91,0009.62,0003.17
2023-05-29 07:06:00,,0829.9,5.00,0.00,29.9,28.2,00.0,38.3,31.4,19.9,0000.0,0003.91,0009.52,0003.15
2023-05-29 07:07:00,,0829.9,5.00,0.00,29.9,28.2,00.0,38.3,31.4,20.1,0000.0,0003.92,0009.62,0003.15
2023-05-29 07:08:00,,0829.9,4.99,0.00,29.9,28.2,00.0,38.3,31.4,20.0,0000.0,0003.92,0010.17,0003.14
2023-05-29 07:09:00,,0829.9,4.99,0.00,29.9,28.2,00.0,38.3,31.4,19.9,0000.0,0003.90,0009.91,0003.14
2023-05-29 07:10:00,,0829.9,5.01,0.00,29.9,28.2,00.0,38.3,31.4,19.3,0000.0,0003.87,0009.52,0003.13
2023-05-29 07:11:00,,0829.9,5.01,0.00,29.9,28.2,00.0,38.3,31.4,19.2,0000.0,0003.85,0009.43,0003.13
2023-05-29 07:12:00,,0829.9,4.99,0.00,29.9,28.2,00.0,38.3,31.4,19.6,0000.0,0003.85,0008.52,0003.14
2023-05-29 07:13:00,,0829.9,5.00,0.00,29.9,28.2,00.0,38.3,31.4,20.3,0000.0,0003.86,0008.33,0003.14
2023-05-29 07:14:00,,0829.9,4.99,0.00,29.9,28.2,00.0,38.3,31.4,19.3,0000.0,0003.90,0008.37,0003.14
2023-05-29 07:15:00,,0829.9,5.00,0.00,29.9,28.2,00.0,38.3,31.4,19.1,0000.0,0003.90,0008.41,0003.14
2023-05-29 07:16:00,,0829.9,5.00,0.00,29.9,28.2,00.0,38.3,31.4,18.8,0000.0,0003.92,0008.43,0003.14
2023-05-29 07:17:00,,0829.9,5.00,0.00,29.9,28.2,00.0,38.3,31.4,19.0,0000.0,0003.91,0008.54,0003.16
2023-05-29 07:18:00,,0829.8,5.00,0.00,29.9,28.2,00.0,38.3,31.4,18.4,0000.0,0003.91,0008.50,0003.15
2023-05-29 07:19:00,,0829.9,5.00,0.00,29.9,28.2,00.0,38.3,31.4,18.2,0000.0,0003.90,0007.91,0003.15
2023-05-29 07:20:00,,0829.9,5.00,0.00,29.9,28.2,00.0,38.3,31.4,18.2,0000.0,0003.91,0007.64,0003.15
2023-05-29 07:21:00,,0829.9,5.00,0.00,29.8,28.2,00.0,38.3,31.4,18.1,0000.0,0003.93,0007.72,0003.16
2023-05-29 07:22:00,,0829.8,5.00,0.00,29.8,28.2,00.0,38.3,31.4,18.4,0000.0,0003.97,0007.86,0003.17
2023-05-29 07:23:00,,0829.8,5.00,0.00,29.8,28.2,00.0,38.2,31.4,18.3,0000.0,0004.00,0007.98,0003.16
2023-05-29 07:24:00,,0829.8,5.00,0.00,29.8,28.2,00.0,38.2,31.4,18.1,0000.0,0004.02,0008.06,0003.16
2023-05-29 07:25:00,,0829.8,5.00,0.00,29.8,28.2,00.0,38.2,31.4,18.0,0000.0,0004.02,0008.11,0003.16
2023-05-29 07:26:00,,0829.8,5.00,0.00,29.8,28.2,00.0,38.2,31.4,17.9,0000.0,0004.03,0008.30,0003.16
2023-05-29 07:27:00,,0829.8,4.99,0.00,29.8,28.2,00.0,38.2,31.4,17.9,0000.0,0004.05,0009.08,0003.16
2023-05-29 07:28:00,,0829.8,4.99,0.00,29.8,28.2,00.0,38.2,31.4,18.0,0000.0,0004.02,0008.88,0003.14
2023-05-29 07:29:00,,0829.8,5.01,0.00,29.8,28.2,00.0,38.2,31.4,18.0,0000.0,0004.02,0008.74,0003.14
2023-05-29 07:30:00,,0829.8,5.02,0.00,29.8,28.2,00.0,38.2,31.4,18.1,0000.0,0004.02,0008.70,0003.15
2023-05-29 07:31:00,,0829.8,4.99,0.00,29.8,28.2,00.0,38.2,31.4,18.0,0000.0,0004.01,0008.67,0003.16
2023-05-29 07:32:00,,0829.9,5.00,0.00,29.8,28.2,00.0,38.2,31.4,18.0,0000.0,0004.00,0009.02,0003.16
2023-05-29 07:33:00,,0829.9,5.01,0.00,29.8,28.2,00.0,38.2,31.4,17.9,0000.0,0004.00,0009.21,0003.16
2023-05-29 07:34:00,,0830.0,5.00,0.00,29.8,28.2,00.0,38.2,31.4,17.9,0000.0,0004.00,0009.20,0003.17
2023-05-29 07:35:00,,0830.0,5.00,0.00,29.8,28.2,00.0,38.2,31.4,18.1,0000.0,0004.01,0009.22,0003.17
2023-05-29 07:36:00,,0830.0,5.00,0.00,29.8,28.2,00.0,38.2,31.4,18.3,0000.0,0003.99,0009.16,0003.16
2023-05-29 07:37:00,,0830.0,5.00,0.00,29.8,28.2,00.0,38.2,31.4,18.9,0000.0,0003.96,0009.11,0003.16
2023-05-29 07:38:00,,0830.0,5.01,0.00,29.8,28.1,00.0,38.2,31.3,20.1,0000.0,0003.96,0008.38,0003.18
2023-05-29 07:39:00,,0830.0,4.99,0.00,29.8,28.1,00.0,38.2,31.4,20.0,0000.0,0003.98,0008.31,0003.20
2023-05-29 07:40:00,,0830.0,5.00,0.00,29.8,28.2,00.0,38.2,31.4,19.5,0000.0,0003.99,0008.34,0003.20
2023-05-29 07:41:00,,0830.0,4.99,0.00,29.8,28.2,00.0,38.2,31.4,19.2,0000.0,0003.99,0008.41,0003.21
2023-05-29 07:42:00,,0830.0,4.99,0.00,29.8,28.2,00.0,38.2,31.4,19.3,0000.0,0003.98,0008.45,0003.20
2023-05-29 07:43:00,,0830.0,5.00,0.00,29.8,28.2,00.0,38.2,31.4,19.6,0000.0,0003.99,0008.21,0003.21
2023-05-29 07:44:00,,0830.0,5.00,0.00,29.9,28.2,00.0,38.2,31.4,19.6,0000.0,0003.99,0007.86,0003.21
2023-05-29 07:45:00,,0830.0,5.00,0.00,29.9,28.3,00.0,38.2,31.4,19.5,0000.0,0003.97,0007.76,0003.21
2023-05-29 07:46:00,,0830.0,5.00,0.00,29.9,28.3,00.0,38.2,31.4,19.6,0000.0,0003.97,0007.82,0003.22
2023-05-29 07:47:00,,0830.0,5.00,0.00,29.9,28.3,00.0,38.2,31.4,19.8,0000.0,0003.97,0007.80,0003.23
2023-05-29 07:48:00,,0830.0,5.00,0.00,29.9,28.3,00.0,38.2,31.4,19.6,0000.0,0004.00,0008.03,0003.24
2023-05-29 07:49:00,,0829.9,4.99,0.00,29.9,28.3,00.0,38.2,31.4,19.6,0000.0,0003.98,0008.27,0003.23
2023-05-29 07:50:00,,0829.9,5.00,0.00,29.9,28.3,00.0,38.2,31.4,19.4,0000.0,0003.94,0008.14,0003.23
2023-05-29 07:51:00,,0830.0,5.00,0.00,29.9,28.3,00.0,38.2,31.4,19.1,0000.0,0003.93,0008.24,0003.23
2023-05-29 07:52:00,,0829.9,5.01,0.00,29.9,28.3,00.0,38.2,31.4,19.1,0000.0,0003.93,0008.26,0003.24
2023-05-29 07:53:00,,0829.9,5.01,0.00,29.9,28.3,00.0,38.2,31.4,18.5,0000.0,0003.96,0008.19,0003.24
2023-05-29 07:54:00,,0829.9,5.00,0.00,29.9,28.3,00.0,38.2,31.4,18.3,0000.0,0003.95,0008.11,0003.24
2023-05-29 07:55:00,,0829.9,5.00,0.00,29.9,28.3,00.0,38.2,31.4,18.4,0000.0,0003.93,0008.10,0003.24
2023-05-29 07:56:00,,0829.9,4.99,0.00,29.9,28.3,00.0,38.2,31.4,18.2,0000.0,0003.91,0008.10,0003.24
2023-05-29 07:57:00,,0829.8,4.99,0.00,29.9,28.3,00.0,38.2,31.4,18.2,0000.0,0003.89,0008.12,0003.23
2023-05-29 07:58:00,,0829.9,5.01,0.00,29.9,28.3,00.0,38.2,31.4,18.1,0000.0,0003.93,0008.28,0003.24
2023-05-29 07:59:00,,0829.8,5.01,0.00,29.9,28.2,00.0,38.2,31.4,18.1,0000.0,0003.92,0008.04,0003.24
